Flag for India Weather past 2 weeks in New Okhla Industrial Development Authority, Uttar Pradesh, India

Now
82 °F

Passing clouds.


Feels Like: 85 °F
Forecast: 72 / 97 °F
Wind: No wind

Location: New Delhi Palam Airport

Current Time: Oct 2, 2014 at 2:47:40 AM

Latest Report: Oct 2, 2014 at 2:00 AM


Visibility: 2 mi

Pressure: 29.86 "Hg

Humidity: 62%

Dew point: 68 °F

Location of New Okhla Industrial Development AuthorityLocation

Historic Weather in New Okhla Industrial Development Authority — Graph

°F

New Okhla Industrial Development Authority temperature yesterday

Maximum temperature yesterday: 99 °F (at 2:30 PM)
Minimum temperature yesterday: 77 °F (at 4:00 AM)
Average temperature yesterday: 87 °F

Past Weeks' High & Low Weather Summary

 TemperatureHumidityPressure
High99 °F (Sep 23, 3:30 PM)89% (Sep 17, 1:30 AM)30.07 "Hg (Sep 17, 1:30 AM)
Low75 °F (Sep 23, 6:00 AM)27% (Sep 30, 3:00 PM)29.59 "Hg (Sep 17, 3:00 PM)
Average87 °F55%29.76 "Hg
* Reported Sep 17 1:30 AM — Oct 2 1:30 AM, New Okhla Industrial Development Authority, Weather by CustomWeather, © 2014

Note: Actual official high and low records may vary slightly from our data, if they occured in-between our weather recording intervals... More about our weather records

Advertising

New Okhla Industrial Development Authority weather history for previous 24 hours

 ConditionsComfort  
Time TempWeatherWind HumidityBarometerVisibility
1:30 AM
Oct 2
82 °FPassing clouds.No wind62%29.86 "Hg2 mi
1:00 AM82 °FPassing clouds.No wind62%29.89 "Hg2 mi
12:30 AM82 °FPassing clouds.No wind62%29.89 "Hg2 mi
12:00 AM84 °FHaze.3 mph58%29.89 "Hg2 mi
11:30 PM
Oct 1
84 °FHaze.3 mph58%29.89 "Hg2 mi
11:00 PM86 °FHaze.3 mph55%29.89 "Hg2 mi
10:30 PM86 °FHaze.3 mph55%29.89 "Hg2 mi
10:00 PM88 °FHaze.5 mph52%29.89 "Hg2 mi
9:30 PM88 °FHaze.3 mph49%29.89 "Hg2 mi
9:00 PM88 °FPassing clouds.6 mph49%29.89 "Hg2 mi
8:30 PM88 °FPassing clouds.7 mph49%29.86 "Hg2 mi
8:00 PM90 °FPassing clouds.5 mph41%29.86 "Hg2 mi
7:30 PM91 °FPassing clouds.5 mph38%29.86 "Hg2 mi
7:00 PM93 °FPassing clouds.6 mph34%29.86 "Hg3 mi
6:30 PM95 °FHaze.6 mph32%29.83 "Hg3 mi
6:00 PM97 °FHaze.5 mph30%29.83 "Hg3 mi
5:30 PM97 °FHaze.7 mph30%29.83 "Hg3 mi
5:00 PM99 °FHaze.9 mph27%29.83 "Hg3 mi
4:30 PM99 °FHaze.9 mph27%29.83 "Hg3 mi
3:30 PM99 °FHaze.8 mph27%29.83 "Hg3 mi
3:00 PM99 °FScattered clouds.12 mph29%29.86 "Hg2 mi
2:30 PM99 °FScattered clouds.12 mph29%29.86 "Hg2 mi
2:00 PM97 °FScattered clouds.8 mph30%29.86 "Hg2 mi
1:30 PM97 °FScattered clouds.9 mph30%29.86 "Hg2 mi
1:00 PM95 °FScattered clouds.7 mph34%29.89 "Hg2 mi
12:30 PM93 °FHaze.9 mph39%29.89 "Hg2 mi
10:30 AM91 °FHaze.7 mph44%29.95 "Hg2 mi
10:00 AM90 °FHaze.7 mph46%29.95 "Hg2 mi
9:30 AM88 °FHaze.6 mph49%29.95 "Hg2 mi
9:00 AM86 °FHaze.3 mph55%29.92 "Hg2 mi
8:30 AM84 °FHaze.No wind58%29.92 "Hg2 mi
7:30 AM79 °FFog.6 mph79%29.92 "Hg2 mi
7:00 AM77 °FFog.6 mph83%29.92 "Hg2 mi
6:30 AM77 °FFog.3 mph83%29.89 "Hg2 mi
6:00 AM77 °FFog.3 mph79%29.89 "Hg2 mi
5:30 AM77 °FFog.3 mph79%29.89 "Hg3 mi
5:00 AM77 °FFog.3 mph79%29.86 "Hg3 mi
4:30 AM77 °FFog.3 mph79%29.86 "Hg3 mi
4:00 AM77 °FFog.3 mph79%29.86 "Hg3 mi
3:30 AM79 °FHaze.5 mph70%29.86 "Hg3 mi
3:00 AM79 °FHaze.5 mph70%29.86 "Hg3 mi
2:30 AM81 °FHaze.5 mph66%29.86 "Hg3 mi
2:00 AM82 °FHaze.6 mph62%29.86 "Hg3 mi
Weather by CustomWeather, © 2014

See weather overviewHow to use our weather pages